Year,Month,Day,Hour,Minute,Value (Times are PST for temperature in C)
2018,08,08,00,00,20.40
2018,08,08,00,01,20.40
2018,08,08,00,02,20.40
2018,08,08,00,03,20.40
2018,08,08,00,04,20.40
2018,08,08,00,05,20.30
2018,08,08,00,06,20.30
2018,08,08,00,07,20.30
2018,08,08,00,08,20.30
2018,08,08,00,09,20.30
2018,08,08,00,10,20.20
2018,08,08,00,11,20.20
2018,08,08,00,12,20.20
2018,08,08,00,13,20.20
2018,08,08,00,14,20.20
2018,08,08,00,15,20.20
2018,08,08,00,16,20.20
2018,08,08,00,17,20.10
2018,08,08,00,18,20.10
2018,08,08,00,19,20.10
2018,08,08,00,20,20.10
2018,08,08,00,21,20.10
2018,08,08,00,22,20.10
2018,08,08,00,23,20.00
2018,08,08,00,24,20.00
2018,08,08,00,25,20.00
2018,08,08,00,26,20.00
2018,08,08,00,27,19.90
2018,08,08,00,28,19.90
2018,08,08,00,29,19.90
2018,08,08,00,30,19.90
2018,08,08,00,31,19.90
2018,08,08,00,32,19.80
2018,08,08,00,33,19.80
2018,08,08,00,34,19.80
2018,08,08,00,35,19.80
2018,08,08,00,36,19.80
2018,08,08,00,37,19.70
2018,08,08,00,38,19.70
2018,08,08,00,39,19.70
2018,08,08,00,40,19.70
2018,08,08,00,41,19.70
2018,08,08,00,42,19.70
2018,08,08,00,43,19.60
2018,08,08,00,44,19.60
2018,08,08,00,45,19.60
2018,08,08,00,46,19.60
2018,08,08,00,47,19.60
2018,08,08,00,48,19.60
2018,08,08,00,49,19.60
2018,08,08,00,50,19.60
2018,08,08,00,51,19.60
2018,08,08,00,52,19.60
2018,08,08,00,53,19.50
2018,08,08,00,54,19.50
2018,08,08,00,55,19.50
2018,08,08,00,56,19.50
2018,08,08,00,57,19.50
2018,08,08,00,58,19.40
2018,08,08,00,59,19.40
2018,08,08,01,00,19.40
2018,08,08,01,01,19.40
2018,08,08,01,02,19.40
2018,08,08,01,03,19.40
2018,08,08,01,04,19.40
2018,08,08,01,05,19.40
2018,08,08,01,06,19.40
2018,08,08,01,07,19.40
2018,08,08,01,08,19.30
2018,08,08,01,09,19.30
2018,08,08,01,10,19.30
2018,08,08,01,11,19.30
2018,08,08,01,12,19.30
2018,08,08,01,13,19.30
2018,08,08,01,14,19.30
2018,08,08,01,15,19.30
2018,08,08,01,16,19.30
2018,08,08,01,17,19.30
2018,08,08,01,18,19.30
2018,08,08,01,19,19.30
2018,08,08,01,20,19.20
2018,08,08,01,21,19.20
2018,08,08,01,22,19.20
2018,08,08,01,23,19.20
2018,08,08,01,24,19.20
2018,08,08,01,25,19.20
2018,08,08,01,26,19.20
2018,08,08,01,27,19.20
2018,08,08,01,28,19.20
2018,08,08,01,29,19.20
2018,08,08,01,30,19.10
2018,08,08,01,31,19.10
2018,08,08,01,32,19.10
2018,08,08,01,33,19.10
2018,08,08,01,34,19.10
2018,08,08,01,35,19.00
2018,08,08,01,36,19.00
2018,08,08,01,37,18.90
2018,08,08,01,38,18.90
2018,08,08,01,39,18.90
2018,08,08,01,40,18.90
2018,08,08,01,41,18.90
2018,08,08,01,42,18.80
2018,08,08,01,43,18.80
2018,08,08,01,44,18.80
2018,08,08,01,45,18.80
2018,08,08,01,46,18.70
2018,08,08,01,47,18.70
2018,08,08,01,48,18.70
2018,08,08,01,49,18.70
2018,08,08,01,50,18.60
2018,08,08,01,51,18.60
2018,08,08,01,52,18.60
2018,08,08,01,53,18.60
2018,08,08,01,54,18.60
2018,08,08,01,55,18.60
2018,08,08,01,56,18.50
2018,08,08,01,57,18.50
2018,08,08,01,58,18.50
2018,08,08,01,59,18.50
2018,08,08,02,00,18.50
2018,08,08,02,01,18.50
2018,08,08,02,02,18.50
2018,08,08,02,03,18.50
2018,08,08,02,04,18.40
2018,08,08,02,05,18.40
2018,08,08,02,06,18.40
2018,08,08,02,07,18.40
2018,08,08,02,08,18.40
2018,08,08,02,09,18.30
2018,08,08,02,10,18.30
2018,08,08,02,11,18.30
2018,08,08,02,12,18.30
2018,08,08,02,13,18.30
2018,08,08,02,14,18.30
2018,08,08,02,15,18.30
2018,08,08,02,16,18.30
2018,08,08,02,17,18.30
2018,08,08,02,18,18.30
2018,08,08,02,19,18.30
2018,08,08,02,20,18.30
2018,08,08,02,21,18.30
2018,08,08,02,22,18.30
2018,08,08,02,23,18.30
2018,08,08,02,24,18.30
2018,08,08,02,25,18.30
2018,08,08,02,26,18.30
2018,08,08,02,27,18.30
2018,08,08,02,28,18.30
2018,08,08,02,29,18.30
2018,08,08,02,30,18.40
2018,08,08,02,31,18.40
2018,08,08,02,32,18.40
2018,08,08,02,33,18.40
2018,08,08,02,34,18.40
2018,08,08,02,35,18.40
2018,08,08,02,36,18.40
2018,08,08,02,37,18.40
2018,08,08,02,38,18.40
2018,08,08,02,39,18.40
2018,08,08,02,40,18.40
2018,08,08,02,41,18.40
2018,08,08,02,42,18.40
2018,08,08,02,43,18.40
2018,08,08,02,44,18.40
2018,08,08,02,45,18.40
2018,08,08,02,46,18.40
2018,08,08,02,47,18.30
2018,08,08,02,48,18.30
2018,08,08,02,49,18.30
2018,08,08,02,50,18.30
2018,08,08,02,51,18.30
2018,08,08,02,52,18.30
2018,08,08,02,53,18.30
2018,08,08,02,54,18.30
2018,08,08,02,55,18.30
2018,08,08,02,56,18.30
2018,08,08,02,57,18.30
2018,08,08,02,58,18.20
2018,08,08,02,59,18.20
2018,08,08,03,00,18.20
2018,08,08,03,01,18.20
2018,08,08,03,02,18.20
2018,08,08,03,03,18.20
2018,08,08,03,04,18.20
2018,08,08,03,05,18.20
2018,08,08,03,06,18.10
2018,08,08,03,07,18.10
2018,08,08,03,08,18.10
2018,08,08,03,09,18.10
2018,08,08,03,10,18.10
2018,08,08,03,11,18.10
2018,08,08,03,12,18.10
2018,08,08,03,13,18.10
2018,08,08,03,14,18.00
2018,08,08,03,15,18.00
2018,08,08,03,16,18.00
2018,08,08,03,17,18.00
2018,08,08,03,18,17.90
2018,08,08,03,19,17.90
2018,08,08,03,20,17.90
2018,08,08,03,21,17.90
2018,08,08,03,22,17.90
2018,08,08,03,23,17.90
2018,08,08,03,24,17.90
2018,08,08,03,25,17.80
2018,08,08,03,26,17.80
2018,08,08,03,27,17.80
2018,08,08,03,28,17.80
2018,08,08,03,29,17.80
2018,08,08,03,30,17.80
2018,08,08,03,31,17.80
2018,08,08,03,32,17.80
2018,08,08,03,33,17.80
2018,08,08,03,34,17.80
2018,08,08,03,35,17.70
2018,08,08,03,36,17.70
2018,08,08,03,37,17.70
2018,08,08,03,38,17.70
2018,08,08,03,39,17.60
2018,08,08,03,40,17.60
2018,08,08,03,41,17.60
2018,08,08,03,42,17.60
2018,08,08,03,43,17.50
2018,08,08,03,44,17.50
2018,08,08,03,45,17.50
2018,08,08,03,46,17.40
2018,08,08,03,47,17.40
2018,08,08,03,48,17.40
2018,08,08,03,49,17.30
2018,08,08,03,50,17.30
2018,08,08,03,51,17.30
2018,08,08,03,52,17.30
2018,08,08,03,53,17.30
2018,08,08,03,54,17.30
2018,08,08,03,55,17.30
2018,08,08,03,56,17.30
2018,08,08,03,57,17.30
2018,08,08,03,58,17.30
2018,08,08,03,59,17.30
2018,08,08,04,00,17.30
2018,08,08,04,01,17.30
2018,08,08,04,02,17.30
2018,08,08,04,03,17.30
2018,08,08,04,04,17.20
2018,08,08,04,05,17.20
2018,08,08,04,06,17.20
2018,08,08,04,07,17.20
2018,08,08,04,08,17.20
2018,08,08,04,09,17.20
2018,08,08,04,10,17.20
2018,08,08,04,11,17.20
2018,08,08,04,12,17.20
2018,08,08,04,13,17.20
2018,08,08,04,14,17.10
2018,08,08,04,15,17.10
2018,08,08,04,16,17.10
2018,08,08,04,17,17.10
2018,08,08,04,18,17.10
2018,08,08,04,19,17.10
2018,08,08,04,20,17.00
2018,08,08,04,21,17.00
2018,08,08,04,22,17.00
2018,08,08,04,23,17.00
2018,08,08,04,24,17.00
2018,08,08,04,25,17.00
2018,08,08,04,26,17.00
2018,08,08,04,27,17.00
2018,08,08,04,28,17.00
2018,08,08,04,29,17.00
2018,08,08,04,30,17.00
2018,08,08,04,31,17.00
2018,08,08,04,32,17.00
2018,08,08,04,33,17.00
2018,08,08,04,34,17.00
2018,08,08,04,35,17.00
2018,08,08,04,36,17.10
2018,08,08,04,37,17.10
2018,08,08,04,38,17.10
2018,08,08,04,39,17.10
2018,08,08,04,40,17.10
2018,08,08,04,41,17.10
2018,08,08,04,42,17.10
2018,08,08,04,43,17.00
2018,08,08,04,44,17.00
2018,08,08,04,45,17.00
2018,08,08,04,46,17.00
2018,08,08,04,47,16.90
2018,08,08,04,48,16.90
2018,08,08,04,49,16.90
2018,08,08,04,50,16.90
2018,08,08,04,51,16.90
2018,08,08,04,52,16.80
2018,08,08,04,53,16.80
2018,08,08,04,54,16.80
2018,08,08,04,55,16.80
2018,08,08,04,56,16.80
2018,08,08,04,57,16.80
2018,08,08,04,58,16.80
2018,08,08,04,59,16.70
2018,08,08,05,00,16.70
2018,08,08,05,01,16.70
2018,08,08,05,02,16.70
2018,08,08,05,03,16.70
2018,08,08,05,04,16.70
2018,08,08,05,05,16.60
2018,08,08,05,06,16.60
2018,08,08,05,07,16.60
2018,08,08,05,08,16.60
2018,08,08,05,09,16.60
2018,08,08,05,10,16.60
2018,08,08,05,11,16.60
2018,08,08,05,12,16.60
2018,08,08,05,13,16.60
2018,08,08,05,14,16.60
2018,08,08,05,15,16.60
2018,08,08,05,16,16.60
2018,08,08,05,17,16.60
2018,08,08,05,18,16.60
2018,08,08,05,19,16.60
2018,08,08,05,20,16.60
2018,08,08,05,21,16.60
2018,08,08,05,22,16.60
2018,08,08,05,23,16.60
2018,08,08,05,24,16.60
2018,08,08,05,25,16.60
2018,08,08,05,26,16.60
2018,08,08,05,27,16.60
2018,08,08,05,28,16.50
2018,08,08,05,29,16.50
2018,08,08,05,30,16.50
2018,08,08,05,31,16.50
2018,08,08,05,32,16.40
2018,08,08,05,33,16.40
2018,08,08,05,34,16.40
2018,08,08,05,35,16.40
2018,08,08,05,36,16.40
2018,08,08,05,37,16.30
2018,08,08,05,38,16.30
2018,08,08,05,39,16.30
2018,08,08,05,40,16.30
2018,08,08,05,41,16.30
2018,08,08,05,42,16.30
2018,08,08,05,43,16.30
2018,08,08,05,44,16.20
2018,08,08,05,45,16.20
2018,08,08,05,46,16.20
2018,08,08,05,47,16.20
2018,08,08,05,48,16.20
2018,08,08,05,49,16.20
2018,08,08,05,50,16.20
2018,08,08,05,51,16.20
2018,08,08,05,52,16.20
2018,08,08,05,53,16.20
2018,08,08,05,54,16.20
2018,08,08,05,55,16.10
2018,08,08,05,56,16.10
2018,08,08,05,57,16.10
2018,08,08,05,58,16.10
2018,08,08,05,59,16.10
2018,08,08,06,00,16.10
2018,08,08,06,01,16.10
2018,08,08,06,02,16.10
2018,08,08,06,03,16.10
2018,08,08,06,04,16.10
2018,08,08,06,05,16.10
2018,08,08,06,06,16.10
2018,08,08,06,07,16.10
2018,08,08,06,08,16.10
2018,08,08,06,09,16.10
2018,08,08,06,10,16.10
2018,08,08,06,11,16.10
2018,08,08,06,12,16.10
2018,08,08,06,13,16.10
2018,08,08,06,14,16.00
2018,08,08,06,15,16.00
2018,08,08,06,16,16.00
2018,08,08,06,17,16.00
2018,08,08,06,18,16.00
2018,08,08,06,19,16.00
2018,08,08,06,20,16.00
2018,08,08,06,21,16.00
2018,08,08,06,22,16.00
2018,08,08,06,23,15.90
2018,08,08,06,24,15.90
2018,08,08,06,25,15.90
2018,08,08,06,26,15.90
2018,08,08,06,27,15.90
2018,08,08,06,28,15.90
2018,08,08,06,29,15.90
2018,08,08,06,30,15.90
2018,08,08,06,31,15.90
2018,08,08,06,32,15.90
2018,08,08,06,33,15.90
2018,08,08,06,34,15.90
2018,08,08,06,35,15.90
2018,08,08,06,36,15.90
2018,08,08,06,37,15.90
2018,08,08,06,38,15.90
2018,08,08,06,39,16.00
2018,08,08,06,40,16.00
2018,08,08,06,41,16.00
2018,08,08,06,42,16.00
2018,08,08,06,43,16.10
2018,08,08,06,44,16.10
2018,08,08,06,45,16.10
2018,08,08,06,46,16.10
2018,08,08,06,47,16.00
2018,08,08,06,48,16.00
2018,08,08,06,49,16.00
2018,08,08,06,50,16.00
2018,08,08,06,51,16.00
2018,08,08,06,52,16.10
2018,08,08,06,53,16.10
2018,08,08,06,54,16.10
2018,08,08,06,55,16.10
2018,08,08,06,56,16.10
2018,08,08,06,57,16.10
2018,08,08,06,58,16.10
2018,08,08,06,59,16.10
2018,08,08,07,00,16.10
2018,08,08,07,01,16.10
2018,08,08,07,02,16.10
2018,08,08,07,03,16.10
2018,08,08,07,04,16.20
2018,08,08,07,05,16.20
2018,08,08,07,06,16.20
2018,08,08,07,07,16.30
2018,08,08,07,08,16.30
2018,08,08,07,09,16.30
2018,08,08,07,10,16.40
2018,08,08,07,11,16.40
2018,08,08,07,12,16.40
2018,08,08,07,13,16.50
2018,08,08,07,14,16.50
2018,08,08,07,15,16.60
2018,08,08,07,16,16.60
2018,08,08,07,17,16.70
2018,08,08,07,18,16.80
2018,08,08,07,19,16.80
2018,08,08,07,20,16.90
2018,08,08,07,21,16.90
2018,08,08,07,22,17.00
2018,08,08,07,23,17.00
2018,08,08,07,24,17.10
2018,08,08,07,25,17.20
2018,08,08,07,26,17.20
2018,08,08,07,27,17.30
2018,08,08,07,28,17.40
2018,08,08,07,29,17.50
2018,08,08,07,30,17.60
2018,08,08,07,31,17.80
2018,08,08,07,32,17.80
2018,08,08,07,33,17.90
2018,08,08,07,34,18.00
2018,08,08,07,35,18.20
2018,08,08,07,36,18.30
2018,08,08,07,37,18.40
2018,08,08,07,38,18.60
2018,08,08,07,39,18.80
2018,08,08,07,40,18.90
2018,08,08,07,41,19.10
2018,08,08,07,42,19.30
2018,08,08,07,43,19.40
2018,08,08,07,44,19.60
2018,08,08,07,45,19.70
2018,08,08,07,46,19.80
2018,08,08,07,47,20.00
2018,08,08,07,48,20.10
2018,08,08,07,49,20.20
2018,08,08,07,50,20.30
2018,08,08,07,51,20.40
2018,08,08,07,52,20.50
2018,08,08,07,53,20.50
2018,08,08,07,54,20.60
2018,08,08,07,55,20.60
2018,08,08,07,56,20.70
2018,08,08,07,57,20.80
2018,08,08,07,58,20.80
2018,08,08,07,59,20.80
2018,08,08,08,00,20.90
2018,08,08,08,01,20.90
2018,08,08,08,02,20.90
2018,08,08,08,03,21.00
2018,08,08,08,04,21.00
2018,08,08,08,05,21.10
2018,08,08,08,06,21.10
2018,08,08,08,07,21.20
2018,08,08,08,08,21.30
2018,08,08,08,09,21.40
2018,08,08,08,10,21.50
2018,08,08,08,11,21.60
2018,08,08,08,12,21.70
2018,08,08,08,13,21.80
2018,08,08,08,14,21.90
2018,08,08,08,15,22.00
2018,08,08,08,16,22.10
2018,08,08,08,17,22.20
2018,08,08,08,18,22.30
2018,08,08,08,19,22.40
2018,08,08,08,20,22.50
2018,08,08,08,21,22.60
2018,08,08,08,22,22.70
2018,08,08,08,23,22.80
2018,08,08,08,24,22.80
2018,08,08,08,25,22.90
2018,08,08,08,26,22.90
2018,08,08,08,27,22.90
2018,08,08,08,28,22.90
2018,08,08,08,29,22.90
2018,08,08,08,30,23.00
2018,08,08,08,31,23.00
2018,08,08,08,32,23.10
2018,08,08,08,33,23.10
2018,08,08,08,34,23.20
2018,08,08,08,35,23.20
2018,08,08,08,36,23.30
2018,08,08,08,37,23.40
2018,08,08,08,38,23.40
2018,08,08,08,39,23.50
2018,08,08,08,40,23.50
2018,08,08,08,41,23.60
2018,08,08,08,42,23.60
2018,08,08,08,43,23.70
2018,08,08,08,44,23.70
2018,08,08,08,45,23.70
2018,08,08,08,46,23.80
2018,08,08,08,47,23.90
2018,08,08,08,48,24.00
2018,08,08,08,49,24.10
2018,08,08,08,50,24.30
2018,08,08,08,51,24.40
2018,08,08,08,52,24.40
2018,08,08,08,53,24.50
2018,08,08,08,54,24.60
2018,08,08,08,55,24.70
2018,08,08,08,56,24.80
2018,08,08,08,57,25.00
2018,08,08,08,58,25.00
2018,08,08,08,59,25.10
2018,08,08,09,00,25.10
2018,08,08,09,01,25.10
2018,08,08,09,02,25.00
2018,08,08,09,03,25.00
2018,08,08,09,04,24.90
2018,08,08,09,05,24.90
2018,08,08,09,06,25.00
2018,08,08,09,07,25.00
2018,08,08,09,08,25.10
2018,08,08,09,09,25.20
2018,08,08,09,10,25.30
2018,08,08,09,11,25.30
2018,08,08,09,12,25.30
2018,08,08,09,13,25.30
2018,08,08,09,14,25.30
2018,08,08,09,15,25.40
2018,08,08,09,16,25.40
2018,08,08,09,17,25.50
2018,08,08,09,18,25.50
2018,08,08,09,19,25.50
2018,08,08,09,20,25.50
2018,08,08,09,21,25.40
2018,08,08,09,22,25.40
2018,08,08,09,23,25.50
2018,08,08,09,24,25.40
2018,08,08,09,25,25.40
2018,08,08,09,26,25.50
2018,08,08,09,27,25.50
2018,08,08,09,28,25.50
2018,08,08,09,29,25.60
2018,08,08,09,30,25.60
2018,08,08,09,31,25.60
2018,08,08,09,32,25.60
2018,08,08,09,33,25.70
2018,08,08,09,34,25.70
2018,08,08,09,35,25.80
2018,08,08,09,36,25.80
2018,08,08,09,37,25.80
2018,08,08,09,38,25.70
2018,08,08,09,39,25.70
2018,08,08,09,40,25.70
2018,08,08,09,41,25.60
2018,08,08,09,42,25.60
2018,08,08,09,43,25.50
2018,08,08,09,44,25.40
2018,08,08,09,45,25.40
2018,08,08,09,46,25.40
2018,08,08,09,47,25.50
2018,08,08,09,48,25.50
2018,08,08,09,49,25.50
2018,08,08,09,50,25.60
2018,08,08,09,51,25.60
2018,08,08,09,52,25.60
2018,08,08,09,53,25.60
2018,08,08,09,54,25.60
2018,08,08,09,55,25.60
2018,08,08,09,56,25.60
2018,08,08,09,57,25.70
2018,08,08,09,58,25.70
2018,08,08,09,59,25.80
2018,08,08,10,00,25.90
2018,08,08,10,01,25.90
2018,08,08,10,02,26.10
2018,08,08,10,03,26.20
2018,08,08,10,04,26.30
2018,08,08,10,05,26.30
2018,08,08,10,06,26.40
2018,08,08,10,07,26.30
2018,08,08,10,08,26.30
2018,08,08,10,09,26.20
2018,08,08,10,10,26.10
2018,08,08,10,11,26.00
2018,08,08,10,12,26.00
2018,08,08,10,13,26.00
2018,08,08,10,14,26.10
2018,08,08,10,15,26.10
2018,08,08,10,16,26.10
2018,08,08,10,17,26.00
2018,08,08,10,18,25.90
2018,08,08,10,19,25.90
2018,08,08,10,20,25.90
2018,08,08,10,21,26.00
2018,08,08,10,22,26.00
2018,08,08,10,23,26.10
2018,08,08,10,24,26.10
2018,08,08,10,25,26.10
2018,08,08,10,26,26.10
2018,08,08,10,27,26.10
2018,08,08,10,28,26.00
2018,08,08,10,29,26.00
2018,08,08,10,30,26.00
2018,08,08,10,31,26.20
2018,08,08,10,32,26.30
2018,08,08,10,33,26.50
2018,08,08,10,34,26.60
2018,08,08,10,35,26.70
2018,08,08,10,36,26.80
2018,08,08,10,37,26.90
2018,08,08,10,38,27.00
2018,08,08,10,39,27.00
2018,08,08,10,40,27.00
2018,08,08,10,41,27.00
2018,08,08,10,42,27.00
2018,08,08,10,43,27.00
2018,08,08,10,44,27.00
2018,08,08,10,45,27.00
2018,08,08,10,46,26.90
2018,08,08,10,47,26.80
2018,08,08,10,48,26.90
2018,08,08,10,49,27.00
2018,08,08,10,50,27.00
2018,08,08,10,51,27.10
2018,08,08,10,52,27.20
2018,08,08,10,53,27.30
2018,08,08,10,54,27.40
2018,08,08,10,55,27.50
2018,08,08,10,56,27.70
2018,08,08,10,57,27.80
2018,08,08,10,58,27.80
2018,08,08,10,59,27.90
2018,08,08,11,00,28.00
2018,08,08,11,01,28.10
2018,08,08,11,02,28.10
2018,08,08,11,03,28.00
2018,08,08,11,04,27.80
2018,08,08,11,05,27.80
2018,08,08,11,06,27.80
2018,08,08,11,07,27.70
2018,08,08,11,08,27.70
2018,08,08,11,09,27.80
2018,08,08,11,10,27.70
2018,08,08,11,11,27.60
2018,08,08,11,12,27.60
2018,08,08,11,13,27.60
2018,08,08,11,14,27.50
2018,08,08,11,15,27.50
2018,08,08,11,16,27.60
2018,08,08,11,17,27.60
2018,08,08,11,18,27.70
2018,08,08,11,19,27.80
2018,08,08,11,20,27.90
2018,08,08,11,21,28.10
2018,08,08,11,22,28.20
2018,08,08,11,23,28.40
2018,08,08,11,24,28.50
2018,08,08,11,25,28.60
2018,08,08,11,26,28.60
2018,08,08,11,27,28.60
2018,08,08,11,28,28.70
2018,08,08,11,29,28.80
2018,08,08,11,30,28.90
2018,08,08,11,31,29.00
2018,08,08,11,32,29.20
2018,08,08,11,33,29.30
2018,08,08,11,34,29.40
2018,08,08,11,35,29.50
2018,08,08,11,36,29.50
2018,08,08,11,37,29.50
2018,08,08,11,38,29.40
2018,08,08,11,39,29.30
2018,08,08,11,40,29.10
2018,08,08,11,41,28.90
2018,08,08,11,42,28.50
2018,08,08,11,43,28.30
2018,08,08,11,44,28.10
2018,08,08,11,45,28.00
2018,08,08,11,46,27.90
2018,08,08,11,47,27.80
2018,08,08,11,48,27.80
2018,08,08,11,49,27.80
2018,08,08,11,50,27.90
2018,08,08,11,51,28.10
2018,08,08,11,52,28.30
2018,08,08,11,53,28.50
2018,08,08,11,54,28.70
2018,08,08,11,55,28.90
2018,08,08,11,56,29.00
2018,08,08,11,57,29.00
2018,08,08,11,58,29.00
2018,08,08,11,59,28.90
2018,08,08,12,00,28.90
2018,08,08,12,01,28.80
2018,08,08,12,02,28.80
2018,08,08,12,03,28.70
2018,08,08,12,04,28.60
2018,08,08,12,05,28.40
2018,08,08,12,06,28.30
2018,08,08,12,07,28.40
2018,08,08,12,08,28.50
2018,08,08,12,09,28.50
2018,08,08,12,10,28.50
2018,08,08,12,11,28.50
2018,08,08,12,12,28.40
2018,08,08,12,13,28.30
2018,08,08,12,14,28.20
2018,08,08,12,15,28.10
2018,08,08,12,16,28.00
2018,08,08,12,17,28.00
2018,08,08,12,18,28.00
2018,08,08,12,19,28.00
2018,08,08,12,20,27.90
2018,08,08,12,21,28.00
2018,08,08,12,22,28.10
2018,08,08,12,23,28.20
2018,08,08,12,24,28.30
2018,08,08,12,25,28.40
2018,08,08,12,26,28.40
2018,08,08,12,27,28.40
2018,08,08,12,28,28.40
2018,08,08,12,29,28.40
2018,08,08,12,30,28.30
2018,08,08,12,31,28.30
2018,08,08,12,32,28.30
2018,08,08,12,33,28.30
2018,08,08,12,34,28.40
2018,08,08,12,35,28.30
2018,08,08,12,36,28.30
2018,08,08,12,37,28.30
2018,08,08,12,38,28.20
2018,08,08,12,39,28.10
2018,08,08,12,40,28.10
2018,08,08,12,41,28.10
2018,08,08,12,42,28.20
2018,08,08,12,43,28.20
2018,08,08,12,44,28.20
2018,08,08,12,45,28.20
2018,08,08,12,46,28.20
2018,08,08,12,47,28.30
2018,08,08,12,48,28.40
2018,08,08,12,49,28.30
2018,08,08,12,50,28.30
2018,08,08,12,51,28.30
2018,08,08,12,52,28.30
2018,08,08,12,53,28.30
2018,08,08,12,54,28.40
2018,08,08,12,55,28.40
2018,08,08,12,56,28.40
2018,08,08,12,57,28.40
2018,08,08,12,58,28.40
2018,08,08,12,59,28.40
2018,08,08,13,00,28.40
2018,08,08,13,01,28.50
2018,08,08,13,02,28.60
2018,08,08,13,03,28.80
2018,08,08,13,04,28.90
2018,08,08,13,05,29.10
2018,08,08,13,06,29.20
2018,08,08,13,07,29.30
2018,08,08,13,08,29.30
2018,08,08,13,09,29.40
2018,08,08,13,10,29.40
2018,08,08,13,11,29.30
2018,08,08,13,12,29.30
2018,08,08,13,13,29.30
2018,08,08,13,14,29.40
2018,08,08,13,15,29.50
2018,08,08,13,16,29.60
2018,08,08,13,17,29.70
2018,08,08,13,18,29.60
2018,08,08,13,19,29.60
2018,08,08,13,20,29.50
2018,08,08,13,21,29.40
2018,08,08,13,22,29.30
2018,08,08,13,23,29.40
2018,08,08,13,24,29.50
2018,08,08,13,25,29.40
2018,08,08,13,26,29.30
2018,08,08,13,27,29.30
2018,08,08,13,28,29.30
2018,08,08,13,29,29.30
2018,08,08,13,30,29.40
2018,08,08,13,31,29.50
2018,08,08,13,32,29.50
2018,08,08,13,33,29.50
2018,08,08,13,34,29.70
2018,08,08,13,35,29.70
2018,08,08,13,36,29.80
2018,08,08,13,37,29.80
2018,08,08,13,38,29.80
2018,08,08,13,39,29.80
2018,08,08,13,40,29.70
2018,08,08,13,41,29.80
2018,08,08,13,42,29.90
2018,08,08,13,43,30.00
2018,08,08,13,44,30.00
2018,08,08,13,45,30.00
2018,08,08,13,46,30.10
2018,08,08,13,47,30.10
2018,08,08,13,48,30.10
2018,08,08,13,49,30.10
2018,08,08,13,50,30.10
2018,08,08,13,51,30.10
2018,08,08,13,52,30.20
2018,08,08,13,53,30.10
2018,08,08,13,54,30.00
2018,08,08,13,55,30.00
2018,08,08,13,56,30.00
2018,08,08,13,57,30.10
2018,08,08,13,58,30.20
2018,08,08,13,59,30.20
2018,08,08,14,00,30.30
2018,08,08,14,01,30.50
2018,08,08,14,02,30.60
2018,08,08,14,03,30.70
2018,08,08,14,04,30.80
2018,08,08,14,05,30.90
2018,08,08,14,06,30.90
2018,08,08,14,07,31.00
2018,08,08,14,08,31.10
2018,08,08,14,09,31.00
2018,08,08,14,10,30.90
2018,08,08,14,11,30.70
2018,08,08,14,12,30.60
2018,08,08,14,13,30.60
2018,08,08,14,14,30.60
2018,08,08,14,15,30.70
2018,08,08,14,16,30.70
2018,08,08,14,17,30.70
2018,08,08,14,18,30.80
2018,08,08,14,19,30.90
2018,08,08,14,20,31.00
2018,08,08,14,21,31.10
2018,08,08,14,22,31.10
2018,08,08,14,23,31.20
2018,08,08,14,24,31.30
2018,08,08,14,25,31.30
2018,08,08,14,26,31.30
2018,08,08,14,27,31.30
2018,08,08,14,28,31.40
2018,08,08,14,29,31.40
2018,08,08,14,30,31.60
2018,08,08,14,31,31.70
2018,08,08,14,32,31.80
2018,08,08,14,33,32.00
2018,08,08,14,34,32.10
2018,08,08,14,35,32.10
2018,08,08,14,36,32.00
2018,08,08,14,37,31.90
2018,08,08,14,38,31.90
2018,08,08,14,39,31.80
2018,08,08,14,40,31.60
2018,08,08,14,41,31.50
2018,08,08,14,42,31.40
2018,08,08,14,43,31.30
2018,08,08,14,44,31.30
2018,08,08,14,45,31.40
2018,08,08,14,46,31.60
2018,08,08,14,47,31.80
2018,08,08,14,48,32.00
2018,08,08,14,49,32.00
2018,08,08,14,50,32.10
2018,08,08,14,51,32.20
2018,08,08,14,52,32.30
2018,08,08,14,53,32.40
2018,08,08,14,54,32.40
2018,08,08,14,55,32.40
2018,08,08,14,56,32.50
2018,08,08,14,57,32.50
2018,08,08,14,58,32.60
2018,08,08,14,59,32.60
2018,08,08,15,00,32.70
2018,08,08,15,01,32.70
2018,08,08,15,02,32.60
2018,08,08,15,03,32.50
2018,08,08,15,04,32.40
2018,08,08,15,05,32.40
2018,08,08,15,06,32.40
2018,08,08,15,07,32.40
2018,08,08,15,08,32.40
2018,08,08,15,09,32.40
2018,08,08,15,10,32.40
2018,08,08,15,11,32.30
2018,08,08,15,12,32.10
2018,08,08,15,13,31.90
2018,08,08,15,14,31.70
2018,08,08,15,15,31.60
2018,08,08,15,16,31.50
2018,08,08,15,17,31.40
2018,08,08,15,18,31.30
2018,08,08,15,19,31.30
2018,08,08,15,20,31.40
2018,08,08,15,21,31.50
2018,08,08,15,22,31.70
2018,08,08,15,23,31.80
2018,08,08,15,24,31.90
2018,08,08,15,25,32.00
2018,08,08,15,26,32.20
2018,08,08,15,27,32.40
2018,08,08,15,28,32.50
2018,08,08,15,29,32.70
2018,08,08,15,30,32.90
2018,08,08,15,31,33.10
2018,08,08,15,32,33.30
2018,08,08,15,33,33.40
2018,08,08,15,34,33.60
2018,08,08,15,35,33.70
2018,08,08,15,36,33.70
2018,08,08,15,37,33.70
2018,08,08,15,38,33.80
2018,08,08,15,39,33.70
2018,08,08,15,40,33.50
2018,08,08,15,41,33.30
2018,08,08,15,42,33.20
2018,08,08,15,43,33.10
2018,08,08,15,44,32.90
2018,08,08,15,45,32.80
2018,08,08,15,46,32.80
2018,08,08,15,47,32.90
2018,08,08,15,48,33.00
2018,08,08,15,49,33.10
2018,08,08,15,50,33.10
2018,08,08,15,51,33.20
2018,08,08,15,52,33.30
2018,08,08,15,53,33.40
2018,08,08,15,54,33.50
2018,08,08,15,55,33.60
2018,08,08,15,56,33.70
2018,08,08,15,57,33.70
2018,08,08,15,58,33.70
2018,08,08,15,59,33.70
2018,08,08,16,00,33.70
2018,08,08,16,01,33.70
2018,08,08,16,02,33.60
2018,08,08,16,03,33.60
2018,08,08,16,04,33.50
2018,08,08,16,05,33.50
2018,08,08,16,06,33.30
2018,08,08,16,07,33.20
2018,08,08,16,08,33.10
2018,08,08,16,09,33.10
2018,08,08,16,10,33.10
2018,08,08,16,11,33.10
2018,08,08,16,12,33.10
2018,08,08,16,13,33.10
2018,08,08,16,14,33.10
2018,08,08,16,15,33.20
2018,08,08,16,16,33.20
2018,08,08,16,17,33.20
2018,08,08,16,18,33.30
2018,08,08,16,19,33.30
2018,08,08,16,20,33.40
2018,08,08,16,21,33.50
2018,08,08,16,22,33.60
2018,08,08,16,23,33.60
2018,08,08,16,24,33.60
2018,08,08,16,25,33.70
2018,08,08,16,26,33.70
2018,08,08,16,27,33.70
2018,08,08,16,28,33.70
2018,08,08,16,29,33.70
2018,08,08,16,30,33.80
2018,08,08,16,31,33.80
2018,08,08,16,32,33.80
2018,08,08,16,33,33.80
2018,08,08,16,34,33.90
2018,08,08,16,35,33.90
2018,08,08,16,36,33.90
2018,08,08,16,37,33.90
2018,08,08,16,38,33.80
2018,08,08,16,39,33.80
2018,08,08,16,40,33.70
2018,08,08,16,41,33.60
2018,08,08,16,42,33.50
2018,08,08,16,43,33.50
2018,08,08,16,44,33.40
2018,08,08,16,45,33.40
2018,08,08,16,46,33.50
2018,08,08,16,47,33.50
2018,08,08,16,48,33.60
2018,08,08,16,49,33.60
2018,08,08,16,50,33.70
2018,08,08,16,51,33.80
2018,08,08,16,52,33.80
2018,08,08,16,53,33.70
2018,08,08,16,54,33.60
2018,08,08,16,55,33.50
2018,08,08,16,56,33.50
2018,08,08,16,57,33.60
2018,08,08,16,58,33.60
2018,08,08,16,59,33.60
2018,08,08,17,00,33.60
2018,08,08,17,01,33.70
2018,08,08,17,02,33.70
2018,08,08,17,03,33.70
2018,08,08,17,04,33.70
2018,08,08,17,05,33.60
2018,08,08,17,06,33.60
2018,08,08,17,07,33.60
2018,08,08,17,08,33.70
2018,08,08,17,09,33.70
2018,08,08,17,10,33.70
2018,08,08,17,11,33.70
2018,08,08,17,12,33.70
2018,08,08,17,13,33.60
2018,08,08,17,14,33.60
2018,08,08,17,15,33.50
2018,08,08,17,16,33.60
2018,08,08,17,17,33.60
2018,08,08,17,18,33.70
2018,08,08,17,19,33.70